Opa-locka, FL

6:32 AM EST on December 07, 2016 (GMT -0500)
Opa Locka

Weather History for KOPF - April, 2014

Change the Weather History Date:

Saturday, April 19, 2014

  Actual Average Record
Temperature  
Mean Temperature 78 °F -  
Max Temperature 89 °F 82 °F 91 °F (1988)
Min Temperature 68 °F 68 °F 50 °F (1956)
Cooling Degree Days 14    
Growing Degree Days 28 (Base 50)    
Moisture  
Dew Point 68 °F    
Average Humidity 78    
Maximum Humidity 100    
Minimum Humidity 51    
Precipitation  
Precipitation 0.32 in - - ()
Sea Level Pressure  
Sea Level Pressure 29.96 in    
Wind  
Wind Speed 11 mph (WSW)    
Max Wind Speed 21 mph    
Max Gust Speed 30 mph    
Visibility 8 miles    
Events Rain , Thunderstorm    
Averages and records for this station are not official NWS values.
T = Trace of Precipitation, MM = Missing Value Source: NWS Daily Summary

Daily Weather History Graph

Daily Weather History Graph

Search for Another Location

Airport or City:

Trip Planner

Search our weather history database for the weather conditions in past years. The results will help you decide how hot, cold, wet, or windy it might be!

Date:

Astronomy

Apr. 19, 2014 Rise Set
Actual Time 6:54 AM EDT 7:46 PM EDT
Civil Twilight 6:30 AM EDT 8:10 PM EDT
Nautical Twilight 6:02 AM EDT 8:38 PM EDT
Astronomical Twilight 5:34 AM EDT 9:06 PM EDT
Moon No Moon Rise 10:24 AM EDT (4/19)
Length of Visible Light 13h 39m
Length of Day
12h 52m
Waning Gibbous, 79% of the Moon is Illuminated
Apr 19
Waning Gibbous
Apr 22
Last Quarter
Apr 29
New
May 6
First Quarter
May 14
Full

Hourly Weather History & Observations

Time (EDT) Temp. Heat Index Dew Point Humidity Pressure Visibility Wind Dir Wind Speed Gust Speed Precip Events Conditions
12:53 AM 78.1 °F - 71.1 °F 79% 29.97 in 10.0 mi SSE 15.0 mph - N/A   Partly Cloudy
1:53 AM 78.1 °F - 71.1 °F 79% 29.96 in 10.0 mi South 11.5 mph - N/A   Clear
2:53 AM 77.0 °F - 71.1 °F 82% 29.94 in 10.0 mi South 8.1 mph - N/A   Partly Cloudy
3:53 AM 78.1 °F - 72.0 °F 81% 29.92 in 10.0 mi South 9.2 mph - N/A   Partly Cloudy
4:53 AM 78.8 °F - 71.6 °F 78% 29.92 in 10.0 mi South 9.2 mph - N/A   Mostly Cloudy
5:38 AM 77.0 °F - 73.0 °F 88% 29.91 in 10.0 mi SW 9.2 mph - 0.01 in Rain , Thunderstorm Light Thunderstorms and Rain
5:53 AM 75.9 °F - 73.0 °F 91% 29.93 in 8.0 mi WSW 10.4 mph - 0.04 in Rain , Thunderstorm Light Rain
6:06 AM 73.0 °F - 69.1 °F 87% 29.94 in 7.0 mi WSW 13.8 mph - 0.06 in Rain , Thunderstorm Thunderstorms and Rain
6:25 AM 72.0 °F - 66.0 °F 81% 29.94 in 4.0 mi SSE 15.0 mph 29.9 mph 0.27 in Rain , Thunderstorm Heavy Rain
6:53 AM 73.0 °F - 71.1 °F 93% 29.96 in 10.0 mi South 9.2 mph - 0.27 in Thunderstorm Overcast
7:23 AM 72.0 °F - 70.0 °F 93% 29.98 in 10.0 mi Variable 3.5 mph - 0.01 in Rain , Thunderstorm Light Thunderstorms and Rain
7:33 AM 71.6 °F - 69.8 °F 94% 29.99 in 2.0 mi SW 6.9 mph - N/A Rain , Thunderstorm Rain
7:35 AM 72.0 °F - 70.0 °F 93% 29.99 in 2.0 mi WSW 6.9 mph - 0.09 in Rain Heavy Rain
7:42 AM 72.0 °F - 71.1 °F 97% 29.99 in 2.0 mi SE 6.9 mph - 0.22 in Rain , Thunderstorm Heavy Rain
7:51 AM 71.6 °F - 69.8 °F 94% 29.98 in 2.0 mi SSE 3.5 mph - 0.24 in Rain Light Rain
7:53 AM 71.6 °F - 69.8 °F 94% 29.98 in 2.0 mi Calm Calm - N/A Rain Light Rain
8:00 AM 71.1 °F - 70.0 °F 96% 29.99 in 10.0 mi SSW 4.6 mph - 0.00 in Rain Light Rain
8:11 AM 71.1 °F - 71.1 °F 100% 29.99 in 10.0 mi Calm Calm - 0.00 in Rain Light Rain
8:53 AM 71.1 °F - 71.1 °F 100% 29.98 in 10.0 mi NW 3.5 mph - 0.01 in Rain Light Rain
9:02 AM 73.0 °F - 72.0 °F 96% 29.97 in 10.0 mi NW 6.9 mph - 0.00 in   Scattered Clouds
9:53 AM 77.0 °F - 70.0 °F 79% 29.97 in 10.0 mi WNW 5.8 mph - 0.00 in   Clear
10:53 AM 79.0 °F - 68.0 °F 69% 29.98 in 10.0 mi West 10.4 mph - N/A   Clear
11:53 AM 82.0 °F 85.9 °F 70.0 °F 67% 29.97 in 10.0 mi West 11.5 mph - N/A   Partly Cloudy
12:53 PM 84.9 °F 88.8 °F 69.1 °F 59% 29.95 in 10.0 mi WSW 11.5 mph - N/A   Clear
1:53 PM 87.1 °F 90.6 °F 68.0 °F 53% 29.92 in 10.0 mi SW 15.0 mph - N/A   Scattered Clouds
2:53 PM 88.0 °F 91.4 °F 68.0 °F 51% 29.91 in 10.0 mi SW 18.4 mph 23.0 mph N/A   Mostly Cloudy
3:53 PM 87.1 °F 89.9 °F 66.9 °F 51% 29.90 in 10.0 mi WSW 20.7 mph 26.5 mph N/A   Scattered Clouds
4:53 PM 84.9 °F 87.1 °F 66.0 °F 53% 29.90 in 10.0 mi West 19.6 mph 27.6 mph N/A   Partly Cloudy
5:53 PM 82.9 °F 84.6 °F 64.9 °F 54% 29.91 in 10.0 mi West 18.4 mph 26.5 mph N/A   Scattered Clouds
6:53 PM 79.0 °F - 64.0 °F 60% 29.92 in 10.0 mi West 13.8 mph - N/A   Clear
7:53 PM 75.9 °F - 63.0 °F 64% 29.93 in 10.0 mi West 12.7 mph - N/A   Partly Cloudy
8:53 PM 73.9 °F - 62.1 °F 66% 29.96 in 10.0 mi WNW 11.5 mph - N/A   Partly Cloudy
9:53 PM 71.1 °F - 60.1 °F 68% 30.00 in 10.0 mi West 16.1 mph - N/A   Clear
10:53 PM 69.1 °F - 59.0 °F 70% 30.01 in 10.0 mi West 12.7 mph - N/A   Clear
11:53 PM 68.0 °F - 60.1 °F 76% 30.01 in 10.0 mi West 10.4 mph - N/A   Clear